WZZ11CZ EPMO-LICJ

Flight info

Callsign WZZ11CZ
Flight time 2h 25m
Altitude 34000
Route EVINA DCT LIGDI DCT SKARY DCT XOMBA DCT NIKAB DCT VEBAL DCT SIRMI/N0460F350 DCT MOLUX DCT BEDPI DCT SOR DCT DELER DCT AMANO DCT ROSAS
Aircraft A321/M-SDE3FGHIRWY/LB1

Departure

Time 2026-03-27 12:23
Airport Warsaw Modlin Airport (EPMO)

Arrival

Time 2026-03-27 14:48
Airport Falcone–Borsellino Airport (LICJ)
Time Latitude Longitude Altitude Speed Heading
2026-03-27 11:36 52.44749 20.65262 338 ft 0 kts 206°
2026-03-27 12:12 52.44751 20.65264 334 ft 3 kts 205°
2026-03-27 12:12 52.44764 20.65271 335 ft 2 kts 191°
2026-03-27 12:13 52.44774 20.65273 337 ft 2 kts 155°
2026-03-27 12:13 52.44783 20.65265 336 ft 1 kts 113°
2026-03-27 12:13 52.44788 20.65241 335 ft 2 kts 87°
2026-03-27 12:13 52.44788 20.65226 337 ft 1 kts 83°
2026-03-27 12:14 52.44787 20.65212 337 ft 1 kts 81°
2026-03-27 12:14 52.44786 20.65210 336 ft 0 kts 80°
2026-03-27 12:17 52.44789 20.65235 336 ft 6 kts 80°
2026-03-27 12:17 52.44798 20.65316 336 ft 8 kts 80°
2026-03-27 12:17 52.44807 20.65407 338 ft 8 kts 81°
2026-03-27 12:18 52.44816 20.65506 338 ft 9 kts 82°
2026-03-27 12:18 52.44825 20.65613 334 ft 10 kts 82°
2026-03-27 12:18 52.44834 20.65726 338 ft 10 kts 82°
2026-03-27 12:18 52.44844 20.65845 337 ft 11 kts 82°
2026-03-27 12:19 52.44854 20.65969 336 ft 11 kts 81°
2026-03-27 12:19 52.44867 20.66102 333 ft 12 kts 81°
2026-03-27 12:19 52.44880 20.66239 336 ft 12 kts 81°
2026-03-27 12:19 52.44894 20.66381 338 ft 13 kts 81°
2026-03-27 12:20 52.44908 20.66528 334 ft 13 kts 81°
2026-03-27 12:20 52.44923 20.66680 338 ft 14 kts 81°
2026-03-27 12:20 52.44938 20.66836 334 ft 14 kts 81°
2026-03-27 12:20 52.44951 20.66982 336 ft 8 kts 82°
2026-03-27 12:21 52.44968 20.67070 334 ft 8 kts 46°
2026-03-27 12:21 52.45020 20.67080 336 ft 8 kts 349°
2026-03-27 12:21 52.45077 20.67063 336 ft 9 kts 350°
2026-03-27 12:21 52.45137 20.67045 337 ft 9 kts 350°
2026-03-27 12:22 52.45202 20.67022 335 ft 10 kts 341°
2026-03-27 12:22 52.45264 20.66978 336 ft 10 kts 336°
2026-03-27 12:22 52.45284 20.66929 335 ft 0 kts 262°
2026-03-27 12:22 52.45281 20.66899 334 ft 15 kts 262°
2026-03-27 12:23 52.45228 20.66278 335 ft 92 kts 262°
2026-03-27 12:23 52.45094 20.64900 335 ft 151 kts 260°
2026-03-27 12:23 52.44884 20.62934 537 ft 183 kts 265°
2026-03-27 12:23 52.44680 20.60980 1480 ft 174 kts 264°
2026-03-27 12:24 52.44469 20.59023 2287 ft 176 kts 265°
2026-03-27 12:24 52.44239 20.57023 2887 ft 184 kts 264°
2026-03-27 12:24 52.44004 20.54835 3186 ft 206 kts 264°
2026-03-27 12:24 52.43431 20.52583 3554 ft 227 kts 233°
2026-03-27 12:25 52.42090 20.51010 3719 ft 254 kts 199°
2026-03-27 12:25 52.40274 20.50410 4035 ft 274 kts 186°
2026-03-27 12:25 52.38356 20.50121 4731 ft 278 kts 181°
2026-03-27 12:25 52.36425 20.49954 5539 ft 277 kts 180°
2026-03-27 12:26 52.34479 20.49784 6361 ft 276 kts 181°
2026-03-27 12:26 52.32571 20.49583 7149 ft 275 kts 182°
2026-03-27 12:26 52.30662 20.49347 7909 ft 275 kts 182°
2026-03-27 12:26 52.28757 20.49090 8652 ft 275 kts 183°
2026-03-27 12:27 52.26847 20.48818 9389 ft 276 kts 183°
2026-03-27 12:27 52.24923 20.48535 10092 ft 278 kts 183°
2026-03-27 12:27 52.22961 20.48244 10425 ft 293 kts 183°
2026-03-27 12:27 52.20860 20.47937 10560 ft 313 kts 184°
2026-03-27 12:28 52.18620 20.47608 10688 ft 333 kts 184°
2026-03-27 12:28 52.16270 20.47260 11022 ft 344 kts 184°
2026-03-27 12:28 52.13869 20.46903 11545 ft 348 kts 184°
2026-03-27 12:28 52.11442 20.46544 12105 ft 352 kts 184°
2026-03-27 12:29 52.08982 20.46182 12684 ft 356 kts 184°
2026-03-27 12:29 52.06501 20.45820 13260 ft 360 kts 184°
2026-03-27 12:29 52.03994 20.45451 13827 ft 364 kts 184°
2026-03-27 12:29 52.01458 20.45079 14349 ft 368 kts 184°
2026-03-27 12:30 51.98931 20.44707 14851 ft 371 kts 184°
2026-03-27 12:30 51.96309 20.44319 15371 ft 375 kts 184°
2026-03-27 12:30 51.93698 20.43932 15887 ft 379 kts 184°
2026-03-27 12:30 51.91062 20.43546 16395 ft 382 kts 184°
2026-03-27 12:31 51.88403 20.43157 16901 ft 386 kts 184°
2026-03-27 12:31 51.85715 20.42768 17402 ft 389 kts 184°
2026-03-27 12:31 51.83004 20.42372 17920 ft 393 kts 184°
2026-03-27 12:31 51.80271 20.41972 18409 ft 396 kts 184°
2026-03-27 12:32 51.77518 20.41573 18892 ft 398 kts 184°
2026-03-27 12:32 51.74761 20.41176 19445 ft 398 kts 184°
2026-03-27 12:32 51.72005 20.40778 19988 ft 397 kts 184°
2026-03-27 12:32 51.69248 20.40380 20531 ft 397 kts 184°
2026-03-27 12:33 51.66495 20.39981 21038 ft 398 kts 184°
2026-03-27 12:33 51.63771 20.39583 21511 ft 399 kts 184°
2026-03-27 12:33 51.61004 20.39180 21980 ft 400 kts 184°
2026-03-27 12:33 51.58223 20.38776 22436 ft 401 kts 184°
2026-03-27 12:34 51.55440 20.38371 22880 ft 403 kts 184°
2026-03-27 12:34 51.52647 20.37969 23330 ft 403 kts 184°
2026-03-27 12:34 51.49848 20.37573 23760 ft 404 kts 184°
2026-03-27 12:34 51.47040 20.37179 24154 ft 405 kts 184°
2026-03-27 12:35 51.44240 20.36785 24550 ft 404 kts 184°
2026-03-27 12:35 51.41439 20.36379 24950 ft 405 kts 185°
2026-03-27 12:35 51.38669 20.35525 25322 ft 407 kts 194°
2026-03-27 12:35 51.36014 20.33930 25697 ft 409 kts 202°
2026-03-27 12:36 51.33443 20.31964 26059 ft 410 kts 202°
2026-03-27 12:36 51.30867 20.29995 26420 ft 410 kts 202°
2026-03-27 12:36 51.28289 20.28028 26767 ft 411 kts 202°
2026-03-27 12:36 51.25708 20.26065 27103 ft 412 kts 202°
2026-03-27 12:37 51.23117 20.24102 27447 ft 412 kts 202°
2026-03-27 12:37 51.20525 20.22148 27784 ft 413 kts 202°
2026-03-27 12:37 51.17924 20.20191 28121 ft 414 kts 202°
2026-03-27 12:37 51.15319 20.18237 28450 ft 414 kts 202°
2026-03-27 12:38 51.12706 20.16276 28790 ft 415 kts 202°
2026-03-27 12:38 51.10105 20.14322 29262 ft 412 kts 202°
2026-03-27 12:38 51.07522 20.12376 29769 ft 409 kts 201°
2026-03-27 12:38 51.04957 20.10449 30227 ft 406 kts 201°
2026-03-27 12:39 51.02404 20.08541 30558 ft 406 kts 201°
2026-03-27 12:39 50.99842 20.06631 30809 ft 407 kts 202°
2026-03-27 12:39 50.97276 20.04719 31043 ft 408 kts 202°
2026-03-27 12:39 50.94699 20.02802 31268 ft 410 kts 202°
2026-03-27 12:40 50.92114 20.00881 31497 ft 411 kts 202°
2026-03-27 12:40 50.89518 19.98949 31719 ft 413 kts 202°
2026-03-27 12:40 50.86919 19.97013 31941 ft 414 kts 202°
2026-03-27 12:40 50.84309 19.95071 32170 ft 415 kts 202°
2026-03-27 12:41 50.81686 19.93123 32407 ft 417 kts 202°
2026-03-27 12:41 50.79058 19.91175 32615 ft 418 kts 202°
2026-03-27 12:41 50.76421 19.89230 32821 ft 419 kts 202°
2026-03-27 12:41 50.73773 19.87277 33024 ft 421 kts 202°
2026-03-27 12:42 50.71116 19.85319 33227 ft 422 kts 203°
2026-03-27 12:42 50.68457 19.83362 33433 ft 423 kts 203°
2026-03-27 12:42 50.65785 19.81397 33632 ft 424 kts 203°
2026-03-27 12:42 50.63110 19.79432 33826 ft 425 kts 203°
2026-03-27 12:43 50.60427 19.77458 34002 ft 427 kts 203°
2026-03-27 12:43 50.55034 19.73498 34041 ft 428 kts 203°
2026-03-27 12:44 50.49620 19.69545 34038 ft 429 kts 203°
2026-03-27 12:44 50.44200 19.65607 34039 ft 430 kts 203°
2026-03-27 12:45 50.38771 19.61660 34039 ft 430 kts 203°
2026-03-27 12:45 50.33337 19.57711 34040 ft 431 kts 203°
2026-03-27 12:46 50.27884 19.53794 34045 ft 431 kts 202°
2026-03-27 12:46 50.23285 19.50629 34045 ft 432 kts 201°
2026-03-27 12:47 50.16869 19.46299 34051 ft 433 kts 201°
2026-03-27 12:47 50.12242 19.43166 34052 ft 433 kts 201°
2026-03-27 12:48 50.06717 19.39403 34051 ft 434 kts 202°
2026-03-27 12:48 50.01185 19.35636 34053 ft 434 kts 201°
2026-03-27 12:49 49.95640 19.31884 34044 ft 435 kts 201°
2026-03-27 12:49 49.90097 19.28130 34041 ft 435 kts 201°
2026-03-27 12:50 49.84547 19.24377 34034 ft 435 kts 201°
2026-03-27 12:50 49.78984 19.20647 34032 ft 436 kts 201°
2026-03-27 12:51 49.73407 19.16912 34029 ft 437 kts 201°
2026-03-27 12:51 49.67828 19.13184 34022 ft 438 kts 201°
2026-03-27 12:52 49.62230 19.09459 34026 ft 438 kts 201°
2026-03-27 12:52 49.56635 19.05731 34018 ft 438 kts 201°
2026-03-27 12:53 49.51035 19.02013 34015 ft 438 kts 201°
2026-03-27 12:53 49.45431 18.98311 34016 ft 438 kts 201°
2026-03-27 12:54 49.39770 18.94836 34021 ft 438 kts 198°
2026-03-27 12:54 49.31147 18.90153 34024 ft 439 kts 197°
2026-03-27 12:55 49.25395 18.87018 34028 ft 439 kts 198°
2026-03-27 12:55 49.19642 18.83822 34025 ft 440 kts 197°
2026-03-27 12:56 49.13882 18.80613 34021 ft 441 kts 197°
2026-03-27 12:56 49.08115 18.77410 34019 ft 442 kts 198°
2026-03-27 12:57 49.02329 18.74213 34004 ft 442 kts 198°
2026-03-27 12:57 48.96539 18.71022 33990 ft 443 kts 197°
2026-03-27 12:58 48.90739 18.67837 33971 ft 443 kts 197°
2026-03-27 12:58 48.84938 18.64657 33950 ft 443 kts 198°
2026-03-27 12:59 48.79134 18.61487 33948 ft 443 kts 197°
2026-03-27 12:59 48.73328 18.58317 33934 ft 443 kts 197°
2026-03-27 13:00 48.67520 18.55156 33923 ft 444 kts 196°
2026-03-27 13:00 48.61707 18.51998 33914 ft 444 kts 196°
2026-03-27 13:01 48.55884 18.48846 33906 ft 445 kts 196°
2026-03-27 13:01 48.50053 18.45703 33899 ft 445 kts 196°
2026-03-27 13:02 48.44215 18.42563 33893 ft 446 kts 196°
2026-03-27 13:02 48.38376 18.39420 33881 ft 446 kts 197°
2026-03-27 13:03 48.32529 18.36276 33866 ft 446 kts 197°
2026-03-27 13:03 48.26674 18.33138 33863 ft 447 kts 197°
2026-03-27 13:04 48.20806 18.30013 33858 ft 448 kts 197°
2026-03-27 13:04 48.14928 18.26903 33859 ft 448 kts 196°
2026-03-27 13:05 48.09038 18.23772 33858 ft 450 kts 197°
2026-03-27 13:05 48.03134 18.20640 33854 ft 450 kts 197°
2026-03-27 13:06 47.97220 18.17515 33846 ft 451 kts 197°
2026-03-27 13:06 47.91291 18.14392 33844 ft 453 kts 197°
2026-03-27 13:07 47.85345 18.11267 33855 ft 453 kts 197°
2026-03-27 13:07 47.79389 18.08141 33861 ft 454 kts 197°
2026-03-27 13:08 47.73417 18.05056 33871 ft 455 kts 195°
2026-03-27 13:08 47.67380 18.02234 33881 ft 455 kts 194°
2026-03-27 13:09 47.61309 17.99530 33890 ft 456 kts 194°
2026-03-27 13:09 47.55234 17.96786 33887 ft 457 kts 194°
2026-03-27 13:10 47.49159 17.93983 33882 ft 458 kts 194°
2026-03-27 13:10 47.43068 17.91163 33875 ft 459 kts 194°
2026-03-27 13:11 47.36965 17.88369 33872 ft 460 kts 194°
2026-03-27 13:11 47.30845 17.85576 33889 ft 461 kts 194°
2026-03-27 13:12 47.24722 17.82782 33890 ft 461 kts 194°
2026-03-27 13:12 47.18580 17.79993 33885 ft 462 kts 194°
2026-03-27 13:13 47.12437 17.77209 33878 ft 462 kts 194°
2026-03-27 13:13 47.06293 17.74428 33862 ft 462 kts 195°
2026-03-27 13:14 47.00147 17.71656 33854 ft 462 kts 194°
2026-03-27 13:14 46.93998 17.68886 33852 ft 463 kts 194°
2026-03-27 13:15 46.87839 17.66119 33845 ft 463 kts 195°
2026-03-27 13:15 46.81679 17.63362 33841 ft 463 kts 195°
2026-03-27 13:16 46.75515 17.60609 33839 ft 463 kts 194°
2026-03-27 13:16 46.69344 17.57866 33841 ft 464 kts 194°
2026-03-27 13:17 46.63167 17.55123 33834 ft 465 kts 194°
2026-03-27 13:17 46.56962 17.52470 33835 ft 465 kts 193°
2026-03-27 13:18 46.50714 17.50008 33822 ft 466 kts 193°
2026-03-27 13:18 46.44456 17.47575 33799 ft 466 kts 194°
2026-03-27 13:19 46.38193 17.45101 33782 ft 467 kts 193°
2026-03-27 13:19 46.31923 17.42602 33780 ft 468 kts 193°
2026-03-27 13:20 46.25640 17.40097 33777 ft 469 kts 193°
2026-03-27 13:20 46.19338 17.37604 33780 ft 470 kts 193°
2026-03-27 13:21 46.13015 17.35121 33773 ft 471 kts 194°
2026-03-27 13:21 46.06680 17.32634 33771 ft 473 kts 194°
2026-03-27 13:22 46.00325 17.30135 33773 ft 474 kts 194°
2026-03-27 13:22 45.94131 17.26882 33771 ft 475 kts 200°
2026-03-27 13:23 45.87964 17.23439 33767 ft 476 kts 200°
2026-03-27 13:23 45.81783 17.20002 33764 ft 476 kts 200°
2026-03-27 13:24 45.75599 17.16582 33766 ft 477 kts 200°
2026-03-27 13:24 45.69413 17.13166 33760 ft 477 kts 200°
2026-03-27 13:25 45.63222 17.09749 33759 ft 477 kts 200°
2026-03-27 13:25 45.57020 17.06338 33762 ft 478 kts 200°
2026-03-27 13:26 45.51821 17.03483 33762 ft 478 kts 200°
2026-03-27 13:26 45.45608 17.00077 33756 ft 478 kts 200°
2026-03-27 13:27 45.39396 16.96679 33762 ft 479 kts 200°
2026-03-27 13:27 45.33173 16.93297 33767 ft 479 kts 200°
2026-03-27 13:28 45.26951 16.89927 33773 ft 479 kts 200°
2026-03-27 13:28 45.20731 16.86562 33765 ft 478 kts 200°
2026-03-27 13:29 45.14513 16.83188 33765 ft 479 kts 200°
2026-03-27 13:29 45.08297 16.79820 33767 ft 478 kts 200°
2026-03-27 13:30 45.02075 16.76465 33773 ft 478 kts 200°
2026-03-27 13:30 44.95855 16.73121 33786 ft 478 kts 200°
2026-03-27 13:31 44.89647 16.69798 33801 ft 476 kts 200°
2026-03-27 13:31 44.83456 16.66485 33805 ft 475 kts 200°
2026-03-27 13:32 44.77286 16.63196 33807 ft 474 kts 200°
2026-03-27 13:32 44.71124 16.59916 33794 ft 474 kts 200°
2026-03-27 13:33 44.64956 16.56636 33779 ft 474 kts 200°
2026-03-27 13:33 44.58783 16.53360 33770 ft 475 kts 200°
2026-03-27 13:34 44.52595 16.50085 33757 ft 476 kts 200°
2026-03-27 13:34 44.46396 16.46812 33750 ft 477 kts 200°
2026-03-27 13:35 44.40180 16.43537 33743 ft 478 kts 199°
2026-03-27 13:35 44.33945 16.40263 33736 ft 479 kts 200°
2026-03-27 13:36 44.27698 16.36996 33731 ft 480 kts 199°
2026-03-27 13:36 44.21450 16.33729 33723 ft 480 kts 199°
2026-03-27 13:37 44.15191 16.30462 33725 ft 480 kts 199°
2026-03-27 13:37 44.08957 16.27117 33726 ft 480 kts 201°
2026-03-27 13:38 44.02773 16.23648 33734 ft 479 kts 201°
2026-03-27 13:38 43.96603 16.20203 33726 ft 478 kts 201°
2026-03-27 13:39 43.90428 16.16807 33711 ft 477 kts 200°
2026-03-27 13:39 43.84254 16.13435 33702 ft 477 kts 200°
2026-03-27 13:40 43.78073 16.10070 33706 ft 477 kts 200°
2026-03-27 13:40 43.71891 16.06708 33701 ft 477 kts 200°
2026-03-27 13:41 43.65710 16.03347 33697 ft 478 kts 200°
2026-03-27 13:41 43.59525 15.99989 33700 ft 478 kts 200°
2026-03-27 13:42 43.53337 15.96628 33697 ft 478 kts 200°
2026-03-27 13:42 43.47138 15.93281 33688 ft 478 kts 200°
2026-03-27 13:43 43.37836 15.88265 33679 ft 479 kts 201°
2026-03-27 13:44 43.31630 15.84924 33679 ft 479 kts 200°
2026-03-27 13:44 43.25429 15.81593 33675 ft 479 kts 200°
2026-03-27 13:45 43.19227 15.78277 33685 ft 478 kts 200°
2026-03-27 13:45 43.13030 15.74978 33681 ft 478 kts 201°
2026-03-27 13:46 43.06837 15.71688 33681 ft 477 kts 201°
2026-03-27 13:46 43.00656 15.68392 33685 ft 476 kts 201°
2026-03-27 13:47 42.94485 15.65115 33687 ft 475 kts 201°
2026-03-27 13:47 42.88325 15.61859 33691 ft 474 kts 201°
2026-03-27 13:48 42.82177 15.58612 33690 ft 473 kts 201°
2026-03-27 13:48 42.76042 15.55374 33690 ft 473 kts 201°
2026-03-27 13:49 42.69912 15.52146 33689 ft 472 kts 201°
2026-03-27 13:49 42.63797 15.48930 33688 ft 471 kts 201°
2026-03-27 13:50 42.57681 15.45728 33687 ft 471 kts 201°
2026-03-27 13:50 42.51570 15.42534 33691 ft 471 kts 201°
2026-03-27 13:51 42.45458 15.39356 33695 ft 470 kts 202°
2026-03-27 13:51 42.39353 15.36180 33696 ft 470 kts 202°
2026-03-27 13:52 42.33252 15.33010 33689 ft 470 kts 202°
2026-03-27 13:52 42.27152 15.29847 33698 ft 470 kts 202°
2026-03-27 13:53 42.21048 15.26692 33698 ft 470 kts 202°
2026-03-27 13:53 42.14946 15.23549 33695 ft 469 kts 202°
2026-03-27 13:54 42.08850 15.20409 33698 ft 469 kts 202°
2026-03-27 13:54 42.02754 15.17272 33700 ft 469 kts 202°
2026-03-27 13:55 41.96674 15.14146 33698 ft 468 kts 202°
2026-03-27 13:55 41.90553 15.11008 33710 ft 467 kts 202°
2026-03-27 13:56 41.84481 15.07913 33718 ft 467 kts 202°
2026-03-27 13:56 41.78411 15.04822 33720 ft 466 kts 202°
2026-03-27 13:57 41.72388 15.01757 33725 ft 466 kts 202°
2026-03-27 13:57 41.66333 14.98678 33722 ft 465 kts 203°
2026-03-27 13:58 41.60240 14.95588 33734 ft 465 kts 203°
2026-03-27 13:58 41.54194 14.92527 33734 ft 465 kts 203°
2026-03-27 13:59 41.48181 14.89493 33724 ft 465 kts 204°
2026-03-27 13:59 41.42099 14.86436 33726 ft 464 kts 203°
2026-03-27 14:00 41.36064 14.83404 33719 ft 463 kts 204°
2026-03-27 14:00 41.30061 14.80303 33719 ft 461 kts 209°
2026-03-27 14:01 41.24333 14.76515 33724 ft 460 kts 209°
2026-03-27 14:01 41.18603 14.72727 33716 ft 459 kts 209°
2026-03-27 14:02 41.12881 14.68978 33714 ft 458 kts 209°
2026-03-27 14:02 41.07166 14.65239 33703 ft 458 kts 209°
2026-03-27 14:03 41.02418 14.62138 33696 ft 458 kts 209°
2026-03-27 14:03 40.96707 14.58415 33691 ft 457 kts 209°
2026-03-27 14:04 40.90996 14.54698 33681 ft 457 kts 209°
2026-03-27 14:04 40.85288 14.50981 33687 ft 457 kts 209°
2026-03-27 14:05 40.79585 14.47278 33684 ft 457 kts 209°
2026-03-27 14:05 40.73880 14.43589 33678 ft 457 kts 209°
2026-03-27 14:06 40.68172 14.39909 33687 ft 456 kts 210°
2026-03-27 14:06 40.62473 14.36235 33684 ft 456 kts 210°
2026-03-27 14:07 40.56700 14.32761 33685 ft 458 kts 203°
2026-03-27 14:07 40.50694 14.29945 33686 ft 458 kts 203°
2026-03-27 14:08 40.44692 14.27145 33688 ft 458 kts 203°
2026-03-27 14:08 40.38691 14.24343 33690 ft 457 kts 204°
2026-03-27 14:09 40.32701 14.21537 33689 ft 457 kts 204°
2026-03-27 14:09 40.26715 14.18739 33691 ft 457 kts 204°
2026-03-27 14:10 40.20728 14.15949 33692 ft 457 kts 204°
2026-03-27 14:10 40.14744 14.13165 33691 ft 456 kts 204°
2026-03-27 14:11 40.08768 14.10376 33691 ft 456 kts 205°
2026-03-27 14:11 40.02795 14.07597 33690 ft 455 kts 205°
2026-03-27 14:12 39.96828 14.04830 33688 ft 455 kts 205°
2026-03-27 14:12 39.90865 14.02059 33688 ft 455 kts 205°
2026-03-27 14:13 39.84903 13.99296 33689 ft 455 kts 205°
2026-03-27 14:13 39.81917 13.97915 33587 ft 455 kts 205°
2026-03-27 14:13 39.78941 13.96541 33317 ft 453 kts 205°
2026-03-27 14:13 39.75967 13.95171 33049 ft 452 kts 205°
2026-03-27 14:14 39.73008 13.93814 32794 ft 451 kts 205°
2026-03-27 14:14 39.70055 13.92460 32535 ft 449 kts 205°
2026-03-27 14:14 39.67110 13.91107 32281 ft 448 kts 205°
2026-03-27 14:14 39.64184 13.89761 32027 ft 445 kts 206°
2026-03-27 14:15 39.61276 13.88423 31773 ft 442 kts 206°
2026-03-27 14:15 39.58388 13.87092 31523 ft 439 kts 206°
2026-03-27 14:15 39.55525 13.85776 31157 ft 434 kts 206°
2026-03-27 14:15 39.52687 13.84475 30649 ft 431 kts 206°
2026-03-27 14:16 39.49867 13.83184 30160 ft 428 kts 206°
2026-03-27 14:16 39.47064 13.81906 29640 ft 426 kts 206°
2026-03-27 14:16 39.44281 13.80637 29092 ft 421 kts 206°
2026-03-27 14:16 39.41534 13.79386 28593 ft 416 kts 206°
2026-03-27 14:17 39.38817 13.78150 28104 ft 412 kts 206°
2026-03-27 14:17 39.36126 13.76928 27614 ft 408 kts 205°
2026-03-27 14:17 39.33462 13.75722 27137 ft 404 kts 205°
2026-03-27 14:17 39.30825 13.74532 26663 ft 400 kts 205°
2026-03-27 14:18 39.28206 13.73351 26198 ft 397 kts 205°
2026-03-27 14:18 39.25609 13.72178 25737 ft 394 kts 205°
2026-03-27 14:18 39.23027 13.71012 25290 ft 392 kts 204°
2026-03-27 14:18 39.20459 13.69852 24840 ft 390 kts 204°
2026-03-27 14:19 39.17902 13.68696 24411 ft 389 kts 204°
2026-03-27 14:19 39.15356 13.67543 23988 ft 387 kts 204°
2026-03-27 14:19 39.12822 13.66396 23566 ft 386 kts 204°
2026-03-27 14:19 39.10293 13.65254 23130 ft 384 kts 204°
2026-03-27 14:20 39.07780 13.64124 22693 ft 380 kts 204°
2026-03-27 14:20 39.05295 13.63011 22270 ft 376 kts 204°
2026-03-27 14:20 39.02837 13.61909 21873 ft 372 kts 204°
2026-03-27 14:20 39.00406 13.60819 21469 ft 368 kts 204°
2026-03-27 14:21 38.97999 13.59741 21057 ft 365 kts 204°
2026-03-27 14:21 38.95617 13.58676 20642 ft 361 kts 204°
2026-03-27 14:21 38.93255 13.57621 20222 ft 358 kts 204°
2026-03-27 14:21 38.90910 13.56576 19802 ft 355 kts 204°
2026-03-27 14:22 38.88584 13.55539 19380 ft 353 kts 204°
2026-03-27 14:22 38.86272 13.54505 18947 ft 351 kts 204°
2026-03-27 14:22 38.83906 13.53699 18501 ft 354 kts 194°
2026-03-27 14:22 38.81437 13.53166 17950 ft 365 kts 193°
2026-03-27 14:23 38.78920 13.52634 17374 ft 366 kts 193°
2026-03-27 14:23 38.76410 13.52109 16827 ft 365 kts 193°
2026-03-27 14:23 38.73909 13.51588 16298 ft 364 kts 193°
2026-03-27 14:23 38.71412 13.51069 15764 ft 363 kts 193°
2026-03-27 14:24 38.68926 13.50551 15236 ft 362 kts 193°
2026-03-27 14:24 38.66447 13.50035 14711 ft 361 kts 193°
2026-03-27 14:24 38.63975 13.49518 14181 ft 359 kts 194°
2026-03-27 14:24 38.61508 13.48996 13655 ft 358 kts 194°
2026-03-27 14:25 38.59055 13.48476 13096 ft 357 kts 194°
2026-03-27 14:25 38.56616 13.47956 12583 ft 353 kts 195°
2026-03-27 14:25 38.54310 13.47031 12052 ft 343 kts 210°
2026-03-27 14:25 38.52337 13.45408 11558 ft 333 kts 225°
2026-03-27 14:26 38.50791 13.43264 11054 ft 325 kts 239°
2026-03-27 14:26 38.49734 13.40763 10571 ft 317 kts 252°
2026-03-27 14:26 38.48911 13.38160 10101 ft 315 kts 252°
2026-03-27 14:26 38.48102 13.35640 9991 ft 296 kts 252°
2026-03-27 14:27 38.47349 13.33332 9920 ft 270 kts 252°
2026-03-27 14:27 38.46642 13.31159 9819 ft 260 kts 252°
2026-03-27 14:27 38.45967 13.29064 9636 ft 253 kts 252°
2026-03-27 14:27 38.45301 13.26985 9259 ft 253 kts 252°
2026-03-27 14:28 38.44629 13.24911 8889 ft 254 kts 251°
2026-03-27 14:28 38.43637 13.23028 8522 ft 260 kts 226°
2026-03-27 14:28 38.42092 13.21887 8163 ft 260 kts 199°
2026-03-27 14:28 38.40279 13.21757 7806 ft 267 kts 171°
2026-03-27 14:29 38.38581 13.22719 7449 ft 270 kts 143°
2026-03-27 14:29 38.37110 13.24201 7188 ft 265 kts 142°
2026-03-27 14:29 38.35653 13.25649 7181 ft 271 kts 146°
2026-03-27 14:29 38.34107 13.26974 6917 ft 269 kts 148°
2026-03-27 14:30 38.32499 13.28196 6420 ft 271 kts 153°
2026-03-27 14:30 38.30814 13.29344 5909 ft 278 kts 154°
2026-03-27 14:30 38.29093 13.30488 5372 ft 278 kts 154°
2026-03-27 14:30 38.27397 13.31616 4821 ft 272 kts 154°
2026-03-27 14:31 38.25701 13.32597 4304 ft 261 kts 173°
2026-03-27 14:31 38.24049 13.32352 4389 ft 219 kts 220°
2026-03-27 14:31 38.22951 13.30989 4399 ft 226 kts 247°
2026-03-27 14:31 38.22635 13.29111 3786 ft 221 kts 277°
2026-03-27 14:32 38.22783 13.27187 3408 ft 211 kts 279°
2026-03-27 14:32 38.22860 13.25353 2901 ft 206 kts 268°
2026-03-27 14:32 38.22448 13.23636 2549 ft 199 kts 251°
2026-03-27 14:32 38.21907 13.22095 2176 ft 183 kts 251°
2026-03-27 14:33 38.21431 13.20685 1863 ft 164 kts 253°
2026-03-27 14:33 38.21000 13.19396 1575 ft 151 kts 253°
2026-03-27 14:33 38.20603 13.18199 1288 ft 144 kts 254°
2026-03-27 14:33 38.20217 13.17037 930 ft 142 kts 252°
2026-03-27 14:34 38.19823 13.15887 696 ft 142 kts 252°
2026-03-27 14:34 38.19444 13.14736 626 ft 140 kts 254°
2026-03-27 14:34 38.19059 13.13589 383 ft 141 kts 256°
2026-03-27 14:34 38.18694 13.12432 162 ft 141 kts 255°
2026-03-27 14:35 38.18303 13.11283 91 ft 138 kts 255°
2026-03-27 14:35 38.17892 13.10273 267 ft 130 kts 251°
2026-03-27 14:35 38.17505 13.09176 949 ft 145 kts 253°
2026-03-27 14:35 38.17121 13.07881 1594 ft 166 kts 256°
2026-03-27 14:36 38.16307 13.04934 2418 ft 196 kts 256°
2026-03-27 14:36 38.15848 13.03188 2705 ft 217 kts 257°
2026-03-27 14:36 38.15716 13.01275 2966 ft 219 kts 285°
2026-03-27 14:37 38.16413 12.99612 2999 ft 216 kts 317°
2026-03-27 14:37 38.17739 12.98758 3006 ft 220 kts 350°
2026-03-27 14:37 38.19273 12.98934 3009 ft 225 kts 11°
2026-03-27 14:37 38.20781 12.99502 3007 ft 227 kts 14°
2026-03-27 14:38 38.22279 13.00127 3006 ft 228 kts 17°
2026-03-27 14:38 38.23597 13.01280 3002 ft 238 kts 48°
2026-03-27 14:38 38.24413 13.03139 3004 ft 243 kts 62°
2026-03-27 14:38 38.25060 13.05143 3004 ft 245 kts 64°
2026-03-27 14:39 38.25690 13.07160 3008 ft 246 kts 64°
2026-03-27 14:39 38.26320 13.09186 3005 ft 247 kts 64°
2026-03-27 14:39 38.26942 13.11225 3004 ft 248 kts 64°
2026-03-27 14:39 38.27564 13.13263 3008 ft 247 kts 64°
2026-03-27 14:40 38.28179 13.15309 3005 ft 248 kts 64°
2026-03-27 14:40 38.28790 13.17351 3005 ft 247 kts 64°
2026-03-27 14:40 38.29396 13.19392 3004 ft 247 kts 64°
2026-03-27 14:40 38.30004 13.21432 3005 ft 247 kts 64°
2026-03-27 14:41 38.30407 13.22783 3003 ft 246 kts 64°
2026-03-27 14:41 38.31011 13.24825 3002 ft 247 kts 64°
2026-03-27 14:41 38.31615 13.26868 3001 ft 247 kts 64°
2026-03-27 14:41 38.32210 13.28918 3001 ft 246 kts 64°
2026-03-27 14:42 38.32803 13.30960 3001 ft 246 kts 65°
2026-03-27 14:42 38.33316 13.33048 2989 ft 252 kts 81°
2026-03-27 14:42 38.32987 13.35245 2994 ft 261 kts 120°
2026-03-27 14:42 38.31703 13.36829 3000 ft 259 kts 159°
2026-03-27 14:43 38.29989 13.37204 3000 ft 247 kts 195°
2026-03-27 14:43 38.28422 13.36466 3023 ft 240 kts 212°
2026-03-27 14:43 38.26945 13.35577 2980 ft 226 kts 212°
2026-03-27 14:43 38.25764 13.34470 2987 ft 200 kts 237°
2026-03-27 14:44 38.25102 13.33016 3019 ft 184 kts 258°
2026-03-27 14:44 38.24797 13.31457 3004 ft 178 kts 264°
2026-03-27 14:44 38.24515 13.29949 2996 ft 173 kts 262°
2026-03-27 14:44 38.24086 13.28496 2847 ft 177 kts 254°
2026-03-27 14:45 38.23609 13.27074 2581 ft 174 kts 253°
2026-03-27 14:45 38.23134 13.25662 2345 ft 173 kts 253°
2026-03-27 14:45 38.22664 13.24259 2117 ft 172 kts 253°
2026-03-27 14:45 38.22213 13.22927 1902 ft 157 kts 254°
2026-03-27 14:46 38.21799 13.21701 1710 ft 147 kts 253°
2026-03-27 14:46 38.21408 13.20524 1503 ft 143 kts 254°
2026-03-27 14:46 38.21020 13.19366 1308 ft 143 kts 253°
2026-03-27 14:46 38.20622 13.18218 1139 ft 141 kts 252°
2026-03-27 14:47 38.20221 13.17061 969 ft 141 kts 253°
2026-03-27 14:47 38.19846 13.15930 794 ft 141 kts 254°
2026-03-27 14:47 38.19482 13.14770 619 ft 142 kts 252°
2026-03-27 14:47 38.19088 13.13631 404 ft 140 kts 255°
2026-03-27 14:48 38.18715 13.12489 194 ft 140 kts 254°
2026-03-27 14:48 38.18335 13.11363 85 ft 132 kts 255°
2026-03-27 14:48 38.18042 13.10429 63 ft 91 kts 247°
2026-03-27 14:48 38.17851 13.09891 66 ft 49 kts 248°
2026-03-27 14:49 38.17727 13.09521 64 ft 43 kts 247°
2026-03-27 14:49 38.17627 13.09224 66 ft 21 kts 246°
2026-03-27 14:49 38.17663 13.09153 71 ft 12 kts 13°
2026-03-27 14:49 38.17754 13.09206 66 ft 20 kts 25°
2026-03-27 14:50 38.17852 13.09289 66 ft 16 kts 58°
2026-03-27 14:50 38.17904 13.09433 61 ft 20 kts 65°
2026-03-27 14:50 38.17946 13.09562 57 ft 10 kts 69°
2026-03-27 14:51 38.18005 13.09756 60 ft 13 kts 66°
2026-03-27 14:51 38.18043 13.09865 64 ft 14 kts 66°
2026-03-27 14:51 38.18081 13.09982 59 ft 15 kts 68°
2026-03-27 14:51 38.18123 13.10106 60 ft 16 kts 67°
2026-03-27 14:52 38.18166 13.10236 60 ft 16 kts 62°
2026-03-27 14:52 38.18208 13.10343 59 ft 9 kts 60°
2026-03-27 14:52 38.18262 13.10361 63 ft 11 kts 354°
2026-03-27 14:52 38.18300 13.10394 60 ft 8 kts 68°
2026-03-27 14:53 38.18324 13.10462 60 ft 10 kts 55°
2026-03-27 14:53 38.18404 13.10511 58 ft 14 kts 21°
2026-03-27 14:53 38.18466 13.10595 57 ft 13 kts 68°
2026-03-27 14:53 38.18489 13.10636 58 ft 3 kts
2026-03-27 14:54 38.18516 13.10626 61 ft 5 kts 338°
2026-03-27 14:54 38.18551 13.10608 63 ft 5 kts 337°
2026-03-27 14:54 38.18554 13.10606 63 ft 0 kts 337°